Weather History for KHLR - November, 2012

Change the Weather History Date:

Wednesday, November 14, 2012

  Actual Average Record
Temperature  
Mean Temperature 52 °F -  
Max Temperature 66 °F 67 °F 84 °F (2007)
Min Temperature 37 °F 51 °F 32 °F (2014)
Degree Days  
Heating Degree Days 14    
Growing Degree Days 2 (Base 50)    
Moisture  
Dew Point 29 °F    
Average Humidity 44    
Maximum Humidity 70    
Minimum Humidity 22    
Precipitation  
Precipitation 0.00 in - - ()
Sea Level Pressure  
Sea Level Pressure 30.37 in    
Wind  
Wind Speed 1 mph (East)    
Max Wind Speed 6 mph    
Max Gust Speed -    
Visibility 10 miles    
Events      
Averages and records for this station are not official NWS values.
T = Trace of Precipitation, MM = Missing Value Source: NWS Daily Summary

Daily Weather History Graph

Daily Weather History Graph

Search for Another Location

Airport or City:

Trip Planner

Search our weather history database for the weather conditions in past years. The results will help you decide how hot, cold, wet, or windy it might be!

Date:

Astronomy

Nov. 14, 2012 Rise Set
Actual Time 6:57 AM CST 5:32 PM CST
Civil Twilight 6:31 AM CST 5:58 PM CST
Nautical Twilight 6:02 AM CST 6:27 PM CST
Astronomical Twilight 5:33 AM CST 6:56 PM CST
Moon 7:44 AM CST (11/14) 6:26 PM CST (11/14)
Length of Visible Light 11h 26m
Length of Day
10h 35m
New Moon, 1% of the Moon is Illuminated
Nov 14
New Moon
Nov 20
First Quarter
Nov 28
Full
Dec 6
Last Quarter
Dec 13
New

Hourly Weather History & Observations

Time (CST) Temp. Windchill Dew Point Humidity Pressure Visibility Wind Dir Wind Speed Gust Speed Precip Events Conditions
12:56 AM 46.9 °F - 30.0 °F 52% 30.37 in 10.0 mi Calm Calm - N/A   Clear
1:56 AM 44.1 °F - 30.0 °F 58% 30.37 in 10.0 mi Calm Calm - N/A   Clear
2:56 AM 42.1 °F 40.2 °F 30.9 °F 65% 30.37 in 10.0 mi NNE 3.5 mph - N/A   Clear
3:56 AM 45.0 °F - 30.0 °F 56% 30.37 in 10.0 mi Calm Calm - N/A   Clear
4:56 AM 43.0 °F - 30.9 °F 62% 30.36 in 10.0 mi Calm Calm - N/A   Clear
5:56 AM 39.0 °F - 30.0 °F 70% 30.37 in 10.0 mi Calm Calm - N/A   Clear
6:56 AM 37.9 °F - 28.9 °F 70% 30.49 in 10.0 mi Calm Calm - N/A   Clear
7:56 AM 44.1 °F 42.5 °F 30.9 °F 60% 30.41 in 10.0 mi West 3.5 mph - N/A   Clear
8:56 AM 50.0 °F - 32.0 °F 50% 30.52 in 10.0 mi Calm Calm - N/A   Clear
9:56 AM 55.0 °F - 30.9 °F 40% 30.53 in 10.0 mi Calm Calm - N/A   Clear
10:56 AM 57.9 °F - 30.0 °F 35% 30.52 in 10.0 mi SSE 4.6 mph - N/A   Clear
11:56 AM 60.1 °F - 28.0 °F 30% 30.49 in 10.0 mi Variable 3.5 mph - N/A   Clear
12:56 PM 63.0 °F - 25.0 °F 24% 30.45 in 10.0 mi Variable 3.5 mph - N/A   Clear
1:56 PM 64.0 °F - 26.1 °F 24% 30.42 in 10.0 mi Calm Calm - N/A   Clear
2:56 PM 64.9 °F - 28.0 °F 25% 30.30 in 10.0 mi Calm Calm - N/A   Clear
3:56 PM 66.0 °F - 27.0 °F 23% 30.29 in 10.0 mi East 5.8 mph - N/A   Clear
4:56 PM 64.0 °F - 24.1 °F 22% 30.28 in 10.0 mi ENE 4.6 mph - N/A   Clear
5:56 PM 59.0 °F - 25.0 °F 27% 30.28 in 10.0 mi Calm Calm - N/A   Clear
6:56 PM 53.1 °F - 28.0 °F 38% 30.30 in 10.0 mi East 3.5 mph - N/A   Clear
7:56 PM 52.0 °F - 28.9 °F 41% 30.30 in 10.0 mi East 3.5 mph - N/A   Clear
8:56 PM 51.1 °F - 30.0 °F 44% 30.31 in 10.0 mi East 4.6 mph - N/A   Clear
9:56 PM 50.0 °F - 28.0 °F 43% 30.30 in 10.0 mi East 3.5 mph - N/A   Clear
10:56 PM 46.9 °F - 30.0 °F 52% 30.29 in 10.0 mi Calm Calm - N/A   Clear
11:56 PM 46.9 °F - 28.0 °F 48% 30.28 in 10.0 mi East 3.5 mph - N/A   Clear